Satellite-Ground Cal/Val Site Overpasses Predictions

Prediction of Satellite NPP Overpassing Cal/Val Site: Antarctic Dome C

Ground Cal/Val Site Location: Latitude: -75.10, Longitude: 123.35; Satellite-Ground Site NADIR distance within 100 km.

Table of predicted overpasses for the next 14.0 days since TLE Epoch: 5/25/2018
Interval Starting Time Ending Time Minimum Distance Time Minimum Distance (km)
1 05/25/2018 14:36:06 05/25/2018 14:36:21 05/25/2018 14:36:14 85.54
2 05/26/2018 07:37:38 05/26/2018 07:38:05 05/26/2018 07:37:52 34.40
3 05/27/2018 07:18:53 05/27/2018 07:19:12 05/27/2018 07:19:02 75.78
4 05/29/2018 15:01:07 05/29/2018 15:01:31 05/29/2018 15:01:19 58.41
5 05/30/2018 14:42:17 05/30/2018 14:42:42 05/30/2018 14:42:29 50.71
6 05/31/2018 07:43:58 05/31/2018 07:44:19 05/31/2018 07:44:08 69.49
7 06/01/2018 07:25:06 06/01/2018 07:25:33 06/01/2018 07:25:19 38.54
8 06/03/2018 15:07:32 06/03/2018 15:07:39 06/03/2018 15:07:35 96.03
9 06/04/2018 14:48:31 06/04/2018 14:49:00 06/04/2018 14:48:46 15.24


NCC Satellite Cal/Val Overpasses Prediction Service
